User: anonymous   Login
Location: Sandbanks Provincial Park
(47.6073°N, 57.6428°W)
Time: 21:17:58
(UTC-02:-30)
Language:

Cosmos 2034 Rocket - Orbit

View from above orbital plane
View from above orbital plane
View from above satellite
View from above satellite

Ground track
Ground track

The orbit data is extracted from the following two-line orbital elements,

1 20150U 89059B   17228.09728656 -.00000061  00000-0 -78951-4 0  9995
2 20150  82.9373  49.6424 0030199 114.1778  25.1815 13.75635747408622
Epoch (UTC): 16 August 2017 02:20:05
Eccentricity: 0.0030199
inclination: 82.9373°
perigee height: 957 km
apogee height: 1001 km
right ascension of ascending node: 49.6424°
argument of perigee: 114.1778°
revolutions per day: 13.75635747
mean anomaly at epoch: 25.1815°
orbit number at epoch: 40862

The dashed part of the orbit path shows where the satellite is in the earth's shadow,  

DLR